[[{"header":{"parameterUnit":"m.s-1","parameterCategory":1,"la1":30.2991,"la2":30.254,"lo1":-89.0895,"lo2":-89.0444,"dy":0.0017,"dx":0.0017,"nx":28,"ny":28,"refTime":"2024-03-15T21:00:00:Z","depth":0,"parameterNumber":2,"parameterNumberName":"U-component_of_WINDS"},"data":[0,0,0,0,0,0,0,0,0,0,0,0,0,0,0,0,0,0,0,0,0,0,0,0,0,0,0,0,0,0,0,0,0,0,0,0,0,0,0,0,0,0,0,0,0,0,0,0,0,0,0,0,0,0,0,0,0,0,-0.8764,-0.8768,0,-0.9184,-0.9189,-0.9193,-0.9348,-0.9347,-0.9346,-0.9344,-0.9796,-0.9809,-0.9822,0,0,0,0,0,0,0,0,0,0,0,0,0,-0.8115,-0.8126,-0.8764,-0.8769,-0.8774,-0.9183,-0.9189,-0.9195,-0.9349,-0.9347,-0.9345,-0.9344,-0.9791,-0.9807,-0.9823,0,0,0,0,0,0,0,0,0,0,0,0,0,-0.8452,-0.8129,-0.8763,-0.89,-0.8916,-0.9182,-0.9189,-0.9196,-0.9349,-0.9347,-0.9345,-0.9343,-0.9786,-0.9806,-0.9825,-0.9992,0,0,-0.9887,-0.9895,0,0,0,0,0,0,0,0,-0.8433,-0.8476,-0.8874,-0.8891,-0.891,-0.9211,-0.9126,-0.9464,-0.935,-0.9185,-0.9344,-0.9342,-0.9604,-0.9639,-0.9723,-1.0013,-1.0033,-0.9888,-0.99,-0.9909,-0.9915,0,0,0,0,0,0,0,-0.8409,-0.8459,-0.8931,-0.888,-0.8902,-0.8947,-0.8992,-0.9191,-0.9403,-0.92,-0.9212,-0.9258,-0.9614,-0.9704,-0.9735,-1.0039,-0.9888,-0.9906,-0.9918,-0.9926,-1.0487,-1.0489,0,0,0,0,0,0,-0.836,-0.8438,-0.8917,-0.8943,-0.866,-0.896,-0.9011,-0.9117,-0.9401,-0.9441,-0.9259,-0.9264,-0.967,-0.9712,-0.9752,-0.9965,-0.9909,-0.9928,-0.9939,-1.0484,-1.0487,-1.049,0,0,0,0,0,0,-0.8346,-0.8401,-0.89,-0.8694,-0.8761,-0.8973,-0.9091,-0.9126,-0.9216,-0.9446,-0.9486,-0.9311,-0.967,-0.9723,-0.9929,-0.9982,-0.9937,-0.9955,-1.048,-1.0485,-1.0489,-1.0392,0,0,0,0,0,0,-0.8326,-0.8395,-0.8456,-0.8694,-0.8771,-0.9065,-0.9094,-0.9136,-0.9248,-0.9257,-0.9505,-0.9544,-0.9673,-0.9899,-0.9949,-1.0009,-0.9971,-1.0477,-1.0482,-1.0487,-1.0391,-1.0392,-1.0393,0,0,0,0,0,-0.8302,-0.8418,-0.8459,-0.8516,-0.8851,-0.9068,-0.9113,-0.9252,-0.9251,-0.9318,-0.9465,-0.9536,-0.9967,-0.9918,-0.9977,-1.0044,-1.0474,-1.0481,-1.0487,-1.0391,-1.0392,-1.0393,0,0,0,0,0,0,-0.819,-0.8451,-0.85,-0.8694,-0.8856,-0.9093,-0.9181,-0.9249,-0.9422,-0.9424,-0.9597,-0.9652,-0.9844,-0.9965,-0.9905,-1.0219,-1.0226,-1.0244,-1.0133,-1.0136,-1.0137,-1.0104,-0.9987,0,0,0,0,0,-0.8185,-0.8333,-0.8557,-0.8707,-0.8785,-0.8968,-0.9068,-0.916,-0.9339,-0.9411,-0.9573,-0.9749,-0.9925,-1.0037,-1.0212,-1.0409,-1.0466,-1.0484,-1.0484,-1.0484,-1.0499,-1.0612,-1.0622,-1.0511,-1.0511,-1.0511,0,0,-0.8183,-0.8344,-0.8428,-0.8688,-0.8825,-0.8979,-0.9026,-0.9188,-0.9305,-0.9438,-0.964,-0.9765,-0.9973,-1.0174,-1.0272,-1.0282,-1.0541,-1.0492,-1.049,-1.0506,-1.0619,-1.0629,-1.0638,-1.0516,-1.0515,-1.0514,0,0,-0.8255,-0.839,-0.8528,-0.8662,-0.8865,-0.8986,-0.9018,-0.9245,-0.933,-0.9534,-0.9636,-0.9782,-1.008,-1.0223,-1.0335,-1.0456,-1.0529,-1.0509,-1.0515,-1.0622,-1.0631,-1.064,-1.0683,-1.0697,-1.0522,-1.0522,-1.0522,0,-0.8228,-0.8456,-0.8594,-0.8748,-0.886,-0.8978,-0.9122,-0.9248,-0.9501,-0.9579,-0.9584,-0.9958,-1.0107,-1.0343,-1.0371,-1.0458,-1.0504,-1.0482,-1.0617,-1.0627,-1.0638,-1.0681,-1.0697,-1.0518,-1.0519,-1.0519,-1.052,0,-0.8413,-0.857,-0.8659,-0.8889,-0.9012,-0.9161,-0.9326,-0.9435,-0.9515,-0.9636,-0.9843,-1.0025,-1.0236,-1.0299,-1.0384,-1.0548,-1.0547,-1.0582,-1.0593,-1.0642,-1.0686,-1.0703,-1.0513,-1.0514,-1.0515,-1.0516,0,0,-0.843,-0.8728,-0.8759,-0.8864,-0.9095,-0.9223,-0.9378,-0.9577,-0.9667,-0.9838,-0.9975,-1.0221,-1.0254,-1.0381,-1.0483,-1.0577,-1.066,-1.0602,-1.061,-1.0606,-1.0852,-1.0823,-1.084,-1.0708,-1.0712,-1.0715,-1.0834,0,-0.8532,-0.8806,-0.8932,-0.9153,-0.9301,-0.9413,-0.9549,-0.9708,-0.9825,-0.9973,-1.0106,-1.0277,-1.0307,-1.0384,-1.0482,-1.0629,-1.0712,-1.0622,-1.0842,-1.0848,-1.0786,-1.0864,-1.0836,-1.0939,-1.0853,-1.0856,-1.0858,0,-0.869,-0.8849,-0.9081,-0.929,-0.9358,-0.9476,-0.9668,-0.9806,-0.999,-1.0069,-1.0206,-1.0302,-1.0475,-1.047,-1.0712,-1.0647,-1.0745,-1.0831,-1.0838,-1.0866,-1.0856,-1.0894,-1.0976,-1.0991,-1.0886,-1.0884,-1.0882,0,-0.8677,-0.8952,-0.9125,-0.9212,-0.9461,-0.9542,-0.9651,-0.9831,-0.9942,-1.0112,-1.0186,-1.0376,-1.0481,-1.0628,-1.0775,-1.0758,-1.1002,-1.1011,-1.1076,-1.1072,-1.1124,-1.1119,-1.1223,-1.1185,-1.1185,-1.1184,-1.1184,0,-0.878,-0.8918,-0.9122,-0.9229,-0.9388,-0.9533,-0.9689,-0.9808,-0.9966,-1.0103,-1.0215,-1.0341,-1.0526,-1.0678,-1.0795,-1.0976,-1.1024,-1.1095,-1.1125,-1.1086,-1.1076,-1.1154,-1.1151,-1.1189,-1.1188,-1.1187,-1.1186,0,-0.8794,-0.8936,-0.9133,-0.9349,-0.9407,-0.9514,-0.9703,-0.9814,-0.9934,-1.0104,-1.0154,-1.0345,-1.0528,-1.0687,-1.0933,-1.1011,-1.1199,-1.1235,-1.1134,-1.115,-1.1206,-1.1198,-1.1364,-1.1394,-1.1333,-1.1333,-1.1334,0,-0.885,-0.8957,-0.9182,-0.9276,-0.9381,-0.9534,-0.9644,-0.9793,-0.9905,-1.0119,-1.0205,-1.0394,-1.0554,-1.0843,-1.1008,-1.1196,-1.1238,-1.1283,-1.1268,-1.1223,-1.1239,-1.1231,-1.1243,-1.1283,-1.1283,-1.1283,-1.1283,0,-0.8935,-0.8998,-0.9149,-0.9324,-0.945,-0.9598,-0.9749,-0.9823,-1.0,-1.0121,-1.0305,-1.0428,-1.0673,-1.0861,-1.1066,-1.1186,-1.1266,-1.1285,-1.1311,-1.1273,-1.1209,-1.1244,-1.1134,-1.1282,-1.1282,-1.1282,-1.1282,-1.1282,-0.8973,-0.9072,-0.9243,-0.9408,-0.9535,-0.9673,-0.9786,-0.9916,-1.0069,-1.0275,-1.0355,-1.0543,-1.0725,-1.1006,-1.1125,-1.1278,-1.1292,-1.1328,-1.1338,-1.1345,-1.1338,-1.1182,-1.1317,-1.1317,-1.1317,-1.1318,-1.1318,0,-0.9063,-0.9177,-0.9326,-0.9529,-0.9659,-0.9713,-0.9882,-0.999,-1.0151,-1.0309,-1.0461,-1.0673,-1.0855,-1.103,-1.1223,-1.1311,-1.1353,-1.1357,-1.1353,-1.1379,-1.1315,-1.1274,-1.132,-1.132,-1.132,-1.132,-1.132,-1.132,-0.9125,-0.9295,-0.9378,-0.9613,-0.973,-0.9907,-0.9999,-1.0128,-1.0255,-1.0483,-1.0631,-1.0741,-1.0909,-1.1113,-1.1283,-1.1331,-1.1397,-1.1391,-1.1449,-1.1386,-1.1384,-1.1382,-1.1344,-1.1404,-1.1404,-1.1501,-1.1502,-1.1502]},{"header":{"parameterUnit":"m.s-1","parameterCategory":1,"la1":30.2991,"la2":30.254,"lo1":-89.0895,"lo2":-89.0444,"dy":0.0017,"dx":0.0017,"nx":28,"ny":28,"refTime":"2024-03-15T21:00:00:Z","depth":0,"parameterNumber":3,"parameterNumberName":"V-component_of_WINDS"},"data":[0,0,0,0,0,0,0,0,0,0,0,0,0,0,0,0,0,0,0,0,0,0,0,0,0,0,0,0,0,0,0,0,0,0,0,0,0,0,0,0,0,0,0,0,0,0,0,0,0,0,0,0,0,0,0,0,0,0,2.591,2.5912,0,2.6042,2.6043,2.6045,2.5999,2.5996,2.5993,2.599,2.6117,2.6123,2.6129,0,0,0,0,0,0,0,0,0,0,0,0,0,2.5612,2.5618,2.591,2.5912,2.5914,2.6042,2.6043,2.6045,2.5999,2.5996,2.5992,2.5989,2.6115,2.6122,2.613,0,0,0,0,0,0,0,0,0,0,0,0,0,2.5742,2.5619,2.591,2.5906,2.5907,2.6041,2.6044,2.6046,2.6,2.5996,2.5991,2.5987,2.6113,2.6122,2.6131,2.6274,0,0,2.6158,2.6162,0,0,0,0,0,0,0,0,2.5735,2.5753,2.5905,2.5907,2.5908,2.6,2.5985,2.6122,2.6001,2.5965,2.599,2.5985,2.6081,2.6093,2.6126,2.628,2.6285,2.6159,2.6165,2.6169,2.6171,0,0,0,0,0,0,0,2.5726,2.5747,2.5962,2.5907,2.5909,2.5896,2.5909,2.601,2.6045,2.5967,2.5965,2.5981,2.6081,2.6118,2.6129,2.6287,2.6159,2.6167,2.6173,2.6176,2.6561,2.6565,0,0,0,0,0,0,2.5717,2.574,2.5958,2.5966,2.5809,2.5905,2.592,2.5975,2.6044,2.6051,2.5985,2.5979,2.6104,2.6118,2.6133,2.6302,2.6169,2.6177,2.6182,2.6556,2.6562,2.6567,0,0,0,0,0,0,2.5711,2.5737,2.5953,2.5852,2.5879,2.5914,2.5976,2.5979,2.6016,2.6057,2.6062,2.6016,2.6102,2.6121,2.6239,2.6306,2.6181,2.619,2.655,2.6558,2.6564,2.6643,0,0,0,0,0,0,2.5702,2.5735,2.5791,2.5854,2.5884,2.6058,2.598,2.5985,2.6033,2.6026,2.6088,2.6094,2.61,2.6226,2.6248,2.6316,2.6197,2.6544,2.6554,2.6562,2.6634,2.6652,2.6667,0,0,0,0,0,2.5692,2.5807,2.5794,2.5821,2.5956,2.6062,2.6079,2.6085,2.6039,2.6094,2.612,2.6092,2.6297,2.6238,2.6263,2.6335,2.654,2.6551,2.6561,2.6627,2.6648,2.6666,0,0,0,0,0,0,2.5748,2.5815,2.5802,2.5941,2.5997,2.6054,2.6124,2.6108,2.6176,2.6166,2.6169,2.6183,2.6304,2.6332,2.6266,2.6476,2.6411,2.6427,2.6452,2.6473,2.6489,2.6477,2.6204,0,0,0,0,0,2.5777,2.5861,2.5914,2.6032,2.6061,2.6088,2.6135,2.6135,2.6191,2.6214,2.6249,2.6302,2.6378,2.6428,2.65,2.664,2.665,2.6702,2.6718,2.6731,2.6743,2.6815,2.6837,2.6602,2.6602,2.6602,0,0,2.5837,2.5884,2.5936,2.6044,2.6087,2.617,2.6108,2.6199,2.626,2.6227,2.634,2.6368,2.6428,2.6557,2.6616,2.6584,2.6811,2.6745,2.6755,2.676,2.6829,2.6851,2.6871,2.6609,2.6608,2.6607,0,0,2.5987,2.6034,2.6135,2.618,2.6248,2.6265,2.629,2.6351,2.6369,2.6484,2.646,2.6532,2.6664,2.6706,2.6745,2.6914,2.6889,2.6938,2.702,2.7091,2.7109,2.7126,2.7181,2.7202,2.6951,2.6952,2.6952,0,2.6051,2.6179,2.6188,2.6282,2.6328,2.6307,2.6407,2.645,2.6537,2.6568,2.6533,2.6697,2.6736,2.6873,2.6914,2.6948,2.6973,2.6928,2.7107,2.7123,2.7138,2.7191,2.7213,2.6957,2.6956,2.6955,2.6955,0,2.6253,2.6341,2.6415,2.6501,2.6557,2.6654,2.6676,2.6731,2.6727,2.6748,2.6863,2.6911,2.6991,2.7025,2.7021,2.7161,2.7138,2.7106,2.7039,2.7166,2.7215,2.7236,2.6964,2.6962,2.696,2.6959,0,0,2.6437,2.653,2.6556,2.6594,2.6668,2.6735,2.683,2.6912,2.6956,2.7018,2.7095,2.7208,2.7178,2.7222,2.7224,2.7287,2.7412,2.7245,2.7246,2.727,2.7564,2.7584,2.7608,2.7399,2.7403,2.7406,2.7557,0,2.6589,2.6758,2.6771,2.6922,2.7002,2.6984,2.7066,2.7118,2.7141,2.721,2.7235,2.7313,2.727,2.7296,2.7358,2.7384,2.747,2.7374,2.7465,2.7468,2.7445,2.7634,2.7657,2.7797,2.7577,2.758,2.7583,0,2.6788,2.6858,2.7018,2.708,2.7113,2.7188,2.7262,2.733,2.7389,2.7401,2.7452,2.7445,2.7539,2.7475,2.7602,2.7536,2.7575,2.7594,2.7599,2.7603,2.7529,2.7638,2.7842,2.7861,2.7614,2.7612,2.7609,0,2.6901,2.7035,2.7147,2.7181,2.7257,2.7309,2.7342,2.7397,2.7445,2.751,2.754,2.7616,2.7655,2.7712,2.7724,2.7677,2.785,2.7787,2.7859,2.7858,2.7891,2.7888,2.8098,2.7926,2.7925,2.7925,2.7925,0,2.7066,2.7163,2.7198,2.7267,2.7374,2.7388,2.7493,2.7523,2.7573,2.7644,2.7634,2.7701,2.7716,2.7785,2.7795,2.7897,2.7916,2.7925,2.7926,2.7923,2.7921,2.7944,2.7933,2.7931,2.7929,2.7928,2.7927,0,2.7207,2.7235,2.7355,2.7419,2.7437,2.7513,2.7566,2.763,2.7654,2.7744,2.7766,2.7801,2.7882,2.7901,2.7997,2.8004,2.8123,2.8117,2.8103,2.8101,2.8169,2.8161,2.8398,2.8427,2.824,2.8242,2.8244,0,2.7308,2.7382,2.7455,2.7504,2.754,2.7619,2.7668,2.7685,2.7736,2.7809,2.7864,2.7945,2.8009,2.8138,2.817,2.8243,2.8235,2.8313,2.8245,2.8239,2.823,2.8223,2.8228,2.8324,2.8326,2.8327,2.8329,0,2.7482,2.7493,2.7566,2.7645,2.7705,2.7766,2.7825,2.7865,2.7889,2.7947,2.8031,2.8082,2.8181,2.8259,2.8333,2.8364,2.8349,2.8351,2.837,2.8365,2.8352,2.8355,2.8133,2.8344,2.8342,2.8341,2.834,2.834,2.7602,2.7667,2.7728,2.781,2.7857,2.7912,2.7976,2.8008,2.8079,2.8163,2.8168,2.8258,2.8314,2.8412,2.8448,2.8516,2.8492,2.8521,2.8527,2.8533,2.8537,2.8347,2.853,2.853,2.853,2.8529,2.8529,0,2.7772,2.7811,2.7887,2.7971,2.8034,2.8021,2.8085,2.8138,2.8218,2.8273,2.8338,2.8434,2.851,2.8549,2.8624,2.8671,2.8666,2.869,2.8683,2.869,2.8557,2.853,2.8692,2.8692,2.8692,2.8692,2.8692,2.8692,2.7867,2.7975,2.7993,2.8123,2.8161,2.8252,2.8289,2.834,2.8383,2.8491,2.8556,2.8583,2.863,2.8709,2.8777,2.8786,2.8812,2.8838,2.8843,2.8717,2.87,2.8683,2.8658,2.8845,2.8845,2.897,2.8971,2.8972]}]]